TimeEDT,TemperatureF,Dew PointF,Humidity,Sea Level PressureIn,VisibilityMPH,Wind Direction,Wind SpeedMPH,Gust SpeedMPH,PrecipitationIn,Events,Conditions,WindDirDegrees,DateUTC
12:53 AM,70.0,61.0,73,30.03,10.0,North,10.4,-,N/A,,Partly Cloudy,350,2014-03-19 04:53:00
1:53 AM,70.0,61.0,73,30.02,10.0,North,8.1,-,N/A,,Clear,360,2014-03-19 05:53:00
2:53 AM,70.0,62.1,76,30.01,10.0,North,8.1,-,N/A,,Mostly Cloudy,360,2014-03-19 06:53:00
3:53 AM,70.0,-9999,N/A,30.00,10.0,NNE,6.9,-,N/A,,Partly Cloudy,20,2014-03-19 07:53:00
4:53 AM,69.1,61.0,75,29.98,10.0,North,3.5,-,N/A,,Partly Cloudy,10,2014-03-19 08:53:00
5:53 AM,70.0,61.0,73,29.99,10.0,North,8.1,-,N/A,,Clear,360,2014-03-19 09:53:00
5:59 AM,70.0,61.0,73,29.99,10.0,North,6.9,-,N/A,,Clear,10,2014-03-19 09:59:00
6:53 AM,70.0,62.1,76,30.01,10.0,North,10.4,-,N/A,,Partly Cloudy,360,2014-03-19 10:53:00
7:53 AM,70.0,61.0,73,30.02,10.0,North,9.2,-,N/A,,Partly Cloudy,10,2014-03-19 11:53:00
8:53 AM,72.0,62.1,71,30.04,10.0,NNE,9.2,-,N/A,,Mostly Cloudy,20,2014-03-19 12:53:00
9:53 AM,73.9,62.1,66,30.06,10.0,NNE,9.2,-,N/A,,Scattered Clouds,30,2014-03-19 13:53:00
10:53 AM,73.9,63.0,68,30.07,10.0,NNE,11.5,-,N/A,,Mostly Cloudy,20,2014-03-19 14:53:00
11:53 AM,75.9,63.0,64,30.08,10.0,North,11.5,-,N/A,,Scattered Clouds,10,2014-03-19 15:53:00
12:53 PM,75.9,63.0,64,30.07,10.0,NNE,9.2,-,N/A,,Scattered Clouds,30,2014-03-19 16:53:00
1:53 PM,78.1,64.9,64,30.05,10.0,NNE,9.2,-,N/A,,Scattered Clouds,20,2014-03-19 17:53:00
2:53 PM,78.1,64.9,64,30.04,10.0,North,10.4,-,N/A,,Clear,360,2014-03-19 18:53:00
3:53 PM,78.1,66.0,66,30.02,10.0,North,11.5,-,N/A,,Partly Cloudy,10,2014-03-19 19:53:00
4:53 PM,78.1,66.9,68,30.01,10.0,North,11.5,-,N/A,,Partly Cloudy,10,2014-03-19 20:53:00
5:53 PM,75.9,66.9,74,30.02,10.0,North,12.7,-,N/A,,Mostly Cloudy,360,2014-03-19 21:53:00
6:53 PM,75.0,66.9,76,30.02,10.0,North,10.4,-,N/A,,Mostly Cloudy,350,2014-03-19 22:53:00
7:53 PM,73.9,66.9,79,30.03,10.0,North,9.2,-,N/A,,Scattered Clouds,360,2014-03-19 23:53:00
8:53 PM,73.0,66.9,81,30.04,10.0,North,9.2,-,N/A,,Scattered Clouds,360,2014-03-20 00:53:00
9:53 PM,72.0,66.9,84,30.06,10.0,North,10.4,-,N/A,,Mostly Cloudy,350,2014-03-20 01:53:00
10:53 PM,72.0,66.9,84,30.06,10.0,North,6.9,-,N/A,,Clear,360,2014-03-20 02:53:00
11:53 PM,71.1,66.9,87,30.06,10.0,North,6.9,-,N/A,,Clear,360,2014-03-20 03:53:00